Probability
0 0 0 0 0 0 0 0 0 0 0 0 0 0 0 0 0 0 0 0 0 0 0 0 0 0 0 0 0 0 0 0 0 0 0 0 0 0 0 0 0 0 0 0 0 0 0 0 0
0 0 0 0 0 0 0 0 0 0 0 0 0 0 0 0 0 0 0 0 0 0 0 0 0 0 0 0 0 0 0 0 0 0 0 0 0 0 0 0 0 0 0 0 0 0 0 0 0
0 0 0 0 0 0 0 0 0 0 0 0 0 0 0 0 0 0 0 0 0 0 0 0 0 0 0 0 0 0 0 0 0 0 0 0 0 0 0 0 0 0 0 0 0 0 0 0 0
0 0 0 0 0 0 0 0 0 0 0 0 0 0 0 0 0 0 0 0 0 0 0 0 0 0 0 0 0 0 0 0 0 0 0 0 0 0 0 0 0 0 0 0 0 0 0 0 0
0 0 0 0 0 0 0 0 0 0 0 0 0 0 0 0 0 0 0 0 0 0 0 0 0 0 0 0 0 0 0 0 0 0 0 0 0 0 0 0 0 0 0 0 0 0 0 0 0
0 0 0 0 0 0 0 0 0 0 0 0 0 0 0 0 0 0 0 0 0 0 0 0 0 0 0 0 0 0 0 0 0 0 0 0 0 0 0 0 0 0 0 0 0 0 0 0 0
0 0 0 0 0 0 0 0 0 0 0 0 0 0 0 0 0 0 0 0 0 0 0 0 0 0 0 0 0 0 0 0 0 0 0 0 0 0 0 0 0 0 0 0 0 0 0 0 0
0 0 0 0 0 0 0 0 0 0 0 0 0 0 0 0 0 0 0 0 0 0 0 0 0 0 0 0 0 0 0 0 0 0 0 0 0 0 0 0 0 0 0 0 0 0 0 0 0
0 0 0 0 0 0 0 0 0 0 0 0 0 0 0 0 0 0 0 0 0 0 0 0 0 0 0 0 0 0 0 0 0 0 0 0 0 0 0 0 0 0 0 0 0 0 0 0 0
0 0 0 0 0 0 0 0 0 0 0 0 0 0 0 0 0 0 0 0 0 0 0 0 0 0 0 0 0 0 0 0 0 0 0 0 0 0 0 0 0 0 0 0 0 0 0 0 0
0 0 0 0 0 0 0 0 0 0 0 0 0 0 0 0 0 0 0 0 0 0 0 0 0 0 0 0 0 0 0 0 0 0 0 0 0 0 0 0 0 0 0 0 0 0 0 0 0
0 0 0 0 0 0 0 0 0 0 0 0 0 0 0 0 0 0 0 0 0 0 0 0 0 0 0 0 0 0 0 0 0 0 0 0 0 0 0 0 0 0 0 0 0 0 0 0 0
0 0 0 0 0 0 0 0 0 0 0 0 0 0 0 0 0 0 0 0 0 0 0 0 0 0 0 0 0 0 0 0 0 0 0 0 0 0 0 0 0 0 0 0 0 0 0 0 0
0 0 0 0 0 0 0 0 0 0 0 0 0 0 0 0 0 0 0 0 0 0 0 0 0 0 0 0 0 0 0 0 0 0 0 0 0 0 0 0 0 0 0 0 0 0 0 0 0
0 0 0 0 0 0 0 0 0 0 0 0 0 0 0 0 0 0 0 0 0 0 0 0 0 0 0 0 0 0 0 0 0 0 0 0 0 0 0 0 0 0 0 0 0 0 0 0 0
0 0 0 0 0 0 0 0 0 0 0 0 0 0 0 0 0 0 0 0 0 0 0 0 0 0 0 0 0 0 0 0 0 0 0 0 0 0 0 0 0 0 0 0 0 0 0 0 0
0 0 0 0 0 0 0 0 0 0 0 0 0 0 0 0 0 0 0 0 0 0 0 0 0 0 0 0 0 0 0 0 0 0 0 0 0 0 0 0 0 0 0 0 0 0 0 0 0
0 0 0 0 0 0 0 0 0 0 0 0 0 0 0 0 0 0 0 0 0 0 0 0 0 0 0 0 0 0 0 0 0 0 0 0 0 0 0 0 0 0 0 0 0 0 0 0 0
0 0 0 0 0 0 0 0 0 0 0 0 0 0 0 0 0 0 0 0 0 0 0 0 0 0 0 0 0 0 0 0 0 0 0 0 0 0 0 0 0 0 0 0 0 0 0 0 0
0 0 0 0 0 0 0 0 0 0 0 0 0 0 0 0 0 0 0 0 0 0 0 0 0 0 0 0 0 0 0 0 0 0 0 0 0 0 0 0 0 0 0 0 0 0 0 0 0
0 0 0 0 0 0 0 0 0 0 0 0 0 0 0 0 0 0 0 0 0 0 0 0 0 0 0 0 0 0 0 0 0 0 0 0 0 0 0 0 0 0 0 0 0 0 0 0 0
0 0 0 0 0 0 0 0 0 0 0 0 0 0 0 0 0 0 0 0 0 0 0 0 0 0 0 0 0 0 0 0 0 0 0 0 0 0 0 0 0 0 0 0 0 0 0 0 0
0 0 0 0 0 0 0 0 0 0 0 0 0 0 0 0 0 0 0 0 0 0 0 0 0 0 0 0 0 0 0 0 0 0 0 0 0 0 0 0 0 0 0 0 0 0 0 0 0
0 0 0 0 0 0 0 0 0 0 0 0 0 0 0 0 0 0 0 0 0 0 0 0 0 0 0 0 0 0 0 0 0 0 0 0 0 0 0 0 0 0 0 0 0 0 0 0 0
0 0 0 0 0 0 0 0 0 0 0 0 0 0 0 0 0 0 0 0 0 0 0 0 0 0 0 0 0 0 0 0 0 0 0 0 0 0 0 0 0 0 0 0 0 0 0 0 0
0 0 0 0 0 0 0 0 0 0 0 0 0 0 0 0 0 0 0 0 0 0 0 0 0 0 0 0 0 0 0 0 0 0 0 0 0 0 0 0 0 0 0 0 0 0 0 0 0
0 0 0 0 0 0 0 0 0 0 0 0 0 0 0 0 0 0 0 0 0 0 0 0 0 0 0 0 0 0 0 0 0 0 0 0 0 0 0 0 0 0 0 0 0 0 0 0 0
0 0 0 0 0 0 0 0 0 0 0 0 0 0 0 0 0 0 0 0 0 0 0 0 0 0 0 0 0 0 0 0 0 0 0 0 0 0 0 0 0 0 0 0 0 0 0 0 0
0 0 0 0 0 0 0 0 0 0 0 0 0 0 0 0 0 0 0 0 0 0 0 0 0 0 0 0 0 0 0 0 0 0 0 0 0 0 0 0 0 0 0 0 0 0 0 0 0
0 0 0 0 0 0 0 0 0 0 0 0 0 0 0 0 0 0 0 0 0 0 0 0 0 0 0 0 0 0 0 0 0 0 0 0 0 0 0 0 0 0 0 0 0 0 0 0 0
Wind_Speed
1 1 2 3 4 3 4 2 2 2 2 1 2 3 4 4 5 5 3 5 7 12 13 13 10 12 13 12 12 11 11 11 12 12 12 11 10 9 9 9 9 9 9 9 8 8 8 8 8
1 2 2 3 4 4 2 1 2 3 1 1 4 5 5 6 4 3 2 8 9 12 12 12 11 11 13 13 12 11 11 11 12 12 11 10 9 8 8 8 8 8 8 8 8 8 9 9 9
1 1 2 3 4 4 3 1 1 2 3 4 4 5 5 4 3 1 2 10 10 11 11 10 10 11 12 12 12 12 11 12 12 11 11 9 8 7 7 8 8 8 8 8 8 9 9 9 9
2 2 2 4 7 5 6 6 5 6 3 5 4 5 5 3 1 1 5 11 11 12 10 10 10 12 12 12 12 12 12 12 11 10 10 9 8 7 7 8 8 8 8 9 9 9 9 10 10
1 2 3 4 5 4 5 6 4 5 3 4 4 5 4 3 2 2 7 12 12 12 10 11 10 11 11 11 12 12 12 11 11 10 9 9 8 8 8 8 8 8 9 9 10 10 10 10 10
2 2 4 4 4 4 5 4 4 5 3 3 5 5 4 4 4 4 8 12 11 11 10 10 10 9 10 11 11 11 11 11 10 10 9 9 9 9 8 8 9 9 9 10 10 10 10 10 10
3 2 3 4 5 4 2 2 4 3 4 5 4 5 3 5 4 5 8 11 11 11 11 11 12 12 10 10 10 10 10 10 10 9 9 9 9 9 9 9 9 10 10 10 10 10 10 10 10
1 3 4 4 5 4 2 3 4 5 4 1 5 7 4 4 5 5 7 10 11 11 12 13 13 13 13 13 11 10 10 10 10 9 9 9 9 9 8 8 9 10 10 10 10 9 9 9 9
3 4 6 6 6 5 4 5 4 3 5 5 7 8 2 5 6 7 8 10 12 12 13 13 14 14 13 13 12 11 10 10 10 9 10 10 10 10 9 9 9 11 11 10 10 9 9 9 9
5 6 7 5 5 4 4 6 5 6 9 9 9 11 5 6 8 11 13 15 17 18 17 14 15 15 14 11 10 10 10 11 11 10 12 10 9 7 7 8 7 10 10 10 10 9 8 4 4
7 9 6 6 7 5 6 7 6 8 12 14 13 11 9 10 11 14 15 16 18 17 17 16 16 15 14 10 10 8 7 9 11 12 12 10 9 7 7 6 7 8 9 8 8 6 4 3 3
7 9 9 5 3 5 7 7 7 12 17 16 14 13 9 11 14 16 17 17 15 15 17 17 17 15 15 13 10 10 8 8 9 11 13 10 8 8 8 6 7 7 5 6 5 4 5 4 4
9 8 7 9 9 10 11 16 14 19 22 20 15 13 16 16 15 15 15 14 14 16 17 17 18 17 15 14 11 10 11 10 11 10 12 13 10 10 9 7 7 8 6 6 6 5 6 5 4
5 7 9 8 10 7 12 20 12 21 15 13 13 14 14 15 16 15 14 16 17 17 17 17 18 18 17 14 13 11 11 11 11 11 13 15 11 10 10 10 9 8 7 6 6 7 6 5 4
4 9 15 12 10 7 6 14 14 17 10 13 13 13 12 14 13 16 16 15 16 17 16 17 17 18 18 18 16 12 11 11 11 11 14 15 13 12 11 10 9 9 8 8 6 7 5 5 4
4 7 11 6 5 5 8 15 14 3 6 13 15 16 16 16 16 15 15 14 14 14 15 15 13 17 19 17 16 12 11 12 11 11 12 16 16 14 12 10 10 9 8 8 7 7 6 5 5
7 10 11 10 5 6 11 14 15 6 10 18 20 20 19 20 20 15 12 12 12 12 13 14 16 17 17 17 14 13 12 12 11 11 12 14 17 16 13 10 10 11 9 8 8 7 6 7 6
12 13 12 12 7 6 11 17 20 20 19 21 22 21 19 19 19 13 9 8 9 10 11 12 14 15 14 12 11 11 13 12 12 12 13 16 15 17 15 11 12 12 10 9 9 9 7 6 6
12 15 20 19 16 11 18 21 20 21 20 21 21 19 18 17 14 9 7 6 5 6 8 10 12 12 12 10 11 11 13 12 12 12 15 17 17 18 17 12 14 13 12 13 13 10 10 7 7
13 17 21 19 12 9 16 21 18 19 20 20 19 18 16 13 12 9 7 5 4 4 5 7 9 11 13 11 10 8 9 10 12 11 14 17 17 18 16 17 14 15 13 15 15 13 9 7 9
14 14 16 17 14 10 13 15 10 11 14 16 17 16 12 9 9 8 8 9 9 8 7 5 6 8 11 11 9 7 7 7 9 12 12 16 18 18 18 19 17 17 16 16 18 17 16 11 11
15 12 13 13 11 9 6 18 8 11 12 14 14 9 6 5 6 8 10 12 13 13 11 10 8 6 6 8 10 13 11 12 12 10 11 13 17 18 18 19 19 18 16 17 18 18 15 14 12
9 3 4 6 9 13 8 13 10 7 10 12 8 4 6 9 11 12 13 14 14 14 13 12 11 9 6 6 10 12 13 12 10 10 12 13 14 17 18 19 18 18 16 18 19 19 19 14 13
3 1 2 2 5 14 10 11 12 5 7 4 2 7 10 12 13 15 15 15 15 16 15 14 14 13 11 7 8 11 14 14 13 13 11 11 10 12 18 19 18 18 17 19 19 19 21 17 16
4 4 6 7 7 12 1 9 10 6 3 2 7 11 13 13 15 17 18 18 17 18 18 16 16 16 15 12 9 10 13 14 15 14 13 12 11 11 16 18 18 18 18 18 18 18 19 20 19
6 6 7 9 12 16 5 13 8 4 1 5 9 11 13 15 16 17 17 16 16 17 17 17 17 16 16 15 13 11 11 10 10 13 13 13 11 12 14 18 18 19 20 19 19 17 18 17 19
5 7 5 6 8 15 17 15 8 5 1 7 11 14 15 15 15 14 14 14 15 15 16 16 16 15 16 16 15 13 12 11 12 13 13 12 12 11 15 16 18 19 20 20 19 16 19 17 19
6 4 3 6 8 16 23 27 19 5 3 10 12 12 12 12 13 13 13 13 13 13 14 14 14 15 15 15 14 12 13 13 13 12 13 14 14 13 14 16 18 19 19 20 20 18 18 19 18
10 9 12 11 10 12 18 18 3 7 7 7 7 8 9 10 10 11 11 11 11 12 13 13 14 14 14 15 14 14 13 13 13 11 13 13 14 14 15 16 17 18 19 20 19 20 19 21 19
16 18 18 16 18 16 17 19 1 8 7 6 5 5 6 7 8 9 10 10 11 12 12 13 13 13 14 14 14 14 14 14 13 13 13 13 14 14 14 15 17 18 19 20 21 22 21 22 22
Wind_Direction
40 324 261 252 257 255 268 260 265 264 240 208 176 213 243 260 283 337 56 170 168 165 168 172 187 181 176 173 169 167 166 162 153 141 132 128 125 121 117 111 104 100 96 91 86 82 79 74 71
4 280 243 253 266 269 278 222 248 290 333 201 202 218 238 248 260 300 168 170 180 171 171 178 175 182 177 175 174 174 174 166 154 144 138 136 136 132 129 121 113 108 102 96 91 87 82 76 73
132 308 264 242 252 284 337 122 296 296 258 230 224 228 257 259 196 218 136 162 177 175 178 176 176 182 179 178 177 176 173 162 153 149 146 146 143 140 138 132 125 118 112 106 100 93 86 80 75
226 189 221 248 256 263 275 299 308 290 240 222 253 237 232 248 256 70 147 166 172 175 182 177 181 182 178 177 177 175 168 160 158 157 154 153 150 150 148 142 135 128 123 117 109 101 93 86 81
214 228 234 250 266 268 268 297 286 270 250 201 226 257 251 161 146 150 167 171 174 175 183 181 178 179 176 175 174 171 165 163 163 163 162 161 162 164 162 155 147 141 134 125 116 108 100 92 86
165 214 245 273 280 282 274 264 259 252 241 211 223 252 257 136 187 177 176 178 179 178 183 184 174 178 173 173 172 171 171 172 172 173 172 172 174 176 172 165 158 150 141 130 122 114 106 98 91
205 215 255 272 283 279 254 207 239 256 238 217 213 239 243 176 180 170 181 182 185 187 189 191 187 186 181 179 177 178 179 181 180 182 180 175 176 179 175 171 167 156 145 136 128 121 112 104 96
213 213 220 236 248 258 209 206 235 248 267 189 213 237 245 120 135 160 176 190 194 198 200 198 197 196 194 193 187 188 186 186 184 184 177 168 169 174 167 174 171 161 151 143 136 127 118 107 99
203 226 235 227 224 238 209 230 222 232 254 227 226 247 347 109 152 168 180 198 204 208 209 206 204 203 202 201 194 194 191 189 184 184 166 168 187 184 177 181 171 164 156 150 143 132 119 112 102
204 232 240 224 221 246 230 242 262 237 249 246 236 236 204 185 192 199 200 203 206 209 207 207 209 205 204 202 198 202 202 199 199 198 186 187 188 183 182 166 171 160 153 153 147 135 130 133 120
214 237 248 237 235 254 263 260 247 247 261 259 259 263 220 212 217 220 220 218 215 212 206 208 209 207 205 202 201 199 200 201 201 198 190 186 183 179 184 174 163 160 160 159 146 149 154 144 126
233 246 250 256 219 229 253 269 257 241 255 274 280 284 265 234 227 225 228 227 224 218 212 207 206 208 208 205 202 201 199 198 197 195 191 186 187 188 186 185 178 173 171 165 165 162 152 142 135
235 259 253 253 253 258 265 261 269 264 264 275 279 271 263 258 251 243 241 242 233 225 219 212 207 207 206 207 207 206 204 202 199 195 195 195 192 192 189 187 184 182 175 174 171 166 159 156 152
262 266 272 263 254 246 251 267 263 264 273 278 270 265 263 260 259 255 242 238 233 229 223 214 209 209 207 207 209 208 208 204 203 200 199 199 198 194 190 189 188 186 183 178 175 168 164 163 161
292 286 281 258 242 242 233 264 242 258 281 279 279 278 274 268 262 254 249 240 235 231 226 217 212 210 210 211 213 212 209 206 205 204 203 200 201 197 193 192 191 188 180 173 169 165 166 166 169
263 261 273 263 207 199 206 261 276 305 274 284 292 293 289 282 270 261 257 252 244 236 228 219 210 211 212 212 214 213 211 209 208 206 203 203 203 199 195 195 194 184 178 178 174 171 170 175 177
234 255 262 283 221 191 219 264 288 304 289 290 291 290 287 286 282 276 267 258 251 241 231 221 212 213 213 214 216 216 214 213 212 208 205 203 203 200 198 198 192 182 182 183 179 179 178 177 175
259 258 264 272 279 226 243 267 284 288 286 283 283 282 280 279 283 302 310 287 258 245 234 226 218 217 214 213 219 221 220 218 216 214 210 203 201 199 199 198 191 184 184 184 184 179 181 176 160
282 278 278 279 280 278 274 277 280 285 283 277 275 276 275 280 296 323 332 317 276 250 237 229 224 216 209 207 210 216 220 219 219 219 216 210 204 200 199 196 191 189 191 189 184 175 177 173 161
258 270 276 283 287 277 283 284 278 268 265 267 274 278 282 295 313 340 356 356 335 313 276 250 235 222 212 213 212 221 228 229 225 222 222 217 211 205 203 199 193 191 192 191 188 181 179 174 184
249 256 274 283 304 279 292 283 253 247 255 264 265 267 282 305 326 349 10 23 21 8 349 314 276 247 227 221 219 220 232 243 233 225 223 220 216 212 209 207 199 195 194 194 192 190 186 182 191
263 258 263 277 288 289 320 299 283 235 252 259 266 281 317 360 18 25 29 27 24 15 7 357 339 304 261 229 225 224 225 232 234 231 227 222 219 219 215 215 209 202 201 199 195 195 196 190 187
245 296 254 262 270 282 253 271 298 196 241 257 274 331 25 32 34 35 30 24 25 21 15 9 6 1 328 253 237 237 241 248 252 245 238 229 220 219 218 218 215 211 208 206 198 196 199 199 194
217 295 253 233 260 275 273 249 297 199 229 259 29 48 42 38 35 35 32 29 27 23 21 16 14 12 2 327 270 251 254 257 258 252 246 237 227 219 218 219 219 217 213 211 205 200 202 203 204
176 246 283 273 255 273 143 250 276 242 268 8 40 43 41 36 34 33 27 25 23 20 19 17 16 14 7 356 331 294 274 269 264 261 253 244 233 223 218 216 220 219 218 214 208 204 205 205 207
192 218 244 272 279 288 264 258 271 250 9 49 51 47 40 37 35 34 29 25 21 18 16 15 14 11 7 2 350 331 310 287 274 267 261 253 243 233 223 218 221 222 220 217 212 210 208 207 208
184 218 256 263 277 280 270 264 263 240 194 51 45 41 37 34 32 30 25 21 17 15 14 12 10 8 6 1 355 346 335 315 297 285 272 262 254 244 232 223 221 223 222 219 215 216 211 208 210
243 242 192 224 247 261 271 275 277 247 73 51 42 35 28 25 23 20 18 15 12 10 6 7 7 5 2 0 358 350 343 333 318 303 288 275 264 252 239 230 224 223 222 219 218 219 215 211 211
233 229 236 245 238 253 266 269 4 104 90 74 57 41 29 22 16 12 9 7 5 3 2 1 0 359 358 356 353 351 349 342 333 320 307 292 277 262 247 235 228 224 221 218 218 219 216 214 212
255 250 244 246 245 243 253 260 106 111 102 89 70 45 29 20 12 4 359 357 358 357 355 354 353 352 351 348 346 346 346 346 342 333 322 308 292 274 256 243 234 228 223 220 219 220 218 215 213